Mataró Vista Alegre (Maresme)





Hora UTC 06:15
Temperatura 25.0 ºC
Humitat 79.0 %
Pressió 1006.0 hPa
Pluja 0.0 mm
Velocitat vent 8.0 km/h
Direcció vent

Dades diàries 2024-07-21



Hora UTC (hivern +1h; estiu +2h)
Temperatura (ºC) Humitat (%) Pressió (hPa) Velocitat vent (km/h) Precipitació (mm)
Hora UTC Aire Humitat Pressió Vel. Dir. Vel. Max Dir. Intent. màx 5 min.
00:05 24.5 89.0 1004.4 1.6 1.6 0.0
00:15 24.3 88.0 1004.4 3.2 9.7 0.0
00:25 24.6 90.0 1004.3 1.6 9.7 0.0
00:35 24.4 89.0 1004.4 1.6 9.7 0.0
00:45 24.4 90.0 1004.4 1.6 9.7 0.0
00:55 24.8 90.0 1004.7 1.6 9.7 0.0
01:05 24.5 90.0 1004.3 3.2 9.7 0.0
01:15 24.6 91.0 1004.3 1.6 9.7 0.0
01:25 24.7 90.0 1004.4 0.0 9.7 0.0
01:35 24.7 90.0 1004.3 0.0 9.7 0.0
01:45 24.3 90.0 1004.3 4.8 9.7 0.0
01:55 24.2 89.0 1004.3 4.8 9.7 0.0
02:05 24.1 89.0 1004.2 3.2 9.7 0.0
02:15 24.1 89.0 1004.2 1.6 9.7 0.0
02:25 24.1 88.0 1004.2 1.6 9.7 0.0
02:35 24.1 87.0 1004.5 3.2 9.7 0.0
02:45 24.3 85.0 1004.5 3.2 11.3 0.0
02:55 24.4 84.0 1004.3 6.4 12.9 0.0
03:05 24.5 84.0 1004.3 8.0 12.9 0.0
03:15 24.7 82.0 1004.3 4.8 12.9 0.0
03:25 24.7 82.0 1004.4 4.8 12.9 0.0
03:35 24.7 82.0 1004.5 3.2 12.9 0.0
03:45 24.6 82.0 1004.5 1.6 12.9 0.0
03:55 24.6 82.0 1004.6 1.6 12.9 0.0
04:05 24.6 82.0 1004.8 1.6 12.9 0.0
04:15 24.6 81.0 1004.8 1.6 12.9 0.0
04:25 24.7 80.0 1004.9 4.8 12.9 0.0
04:35 24.8 80.0 1005.0 6.4 12.9 0.0
04:45 24.7 81.0 1005.0 6.4 16.1 0.0
04:55 24.8 84.0 1005.1 8.0 17.7 0.0
05:05 24.8 85.0 1005.4 4.8 17.7 0.0
05:15 24.8 86.0 1005.4 4.8 17.7 0.0
05:25 25.0 86.0 1005.5 6.4 17.7 0.0
05:35 25.1 87.0 1005.6 8.0 19.3 0.0
05:45 24.8 85.0 1005.6 11.3 22.5 0.0
05:55 24.7 84.0 1005.9 9.7 22.5 0.0
06:05 24.6 83.0 1006.0 11.3 22.5 0.0
06:15 25.0 79.0 1006.0 8.0 22.5 0.0
Màxima 25.4 91.0 1006.0 11.3 22.5 0.0
Mínima 20 79.0 1004.2
Total 0.0